Wind_Speed
28 27 26 26 26 25 24 23 22 21 20 19 19 19 18 18 18 17 17 16 17 16 16 16 15 15 14 14 13 13 13 12 12 13 13 12 12 13 13 13 12 12 12 11 10 10 10 9 9 8 8 7 7 7 7 7 6 6 6 7 7 6 6 6 7 7 6 6 6 6 7 8 8 8 8 7 8 8 9 10 11 12 13 13 12
28 28 27 27 27 26 26 25 24 23 22 21 20 20 19 19 19 18 18 18 18 18 18 17 17 16 16 15 15 14 14 14 14 14 14 13 14 14 14 14 14 13 13 12 11 11 10 10 9 9 8 8 8 8 7 7 6 6 6 7 7 7 7 7 7 7 7 6 7 7 8 9 10 10 10 9 9 9 9 9 10 12 13 13 13
29 29 29 28 29 28 27 26 25 24 23 23 22 21 21 20 20 19 19 19 19 19 19 18 18 17 17 17 16 15 15 15 15 15 15 14 14 14 14 14 14 13 13 12 12 11 11 10 10 9 9 8 8 8 7 7 7 6 6 7 7 6 7 7 7 8 8 7 8 8 9 10 11 12 12 11 11 11 11 11 11 12 13 14 14
30 30 30 30 29 29 27 27 27 26 25 24 24 23 22 22 21 21 20 20 20 20 19 19 18 18 18 18 18 17 16 15 15 15 15 14 15 15 15 15 15 14 13 13 13 13 12 12 11 10 9 9 8 8 7 7 7 7 7 7 7 7 7 8 8 8 9 9 9 10 11 11 12 13 13 13 13 13 13 13 13 13 14 15 15
31 30 30 30 29 28 28 28 27 26 25 25 25 25 24 23 22 21 21 21 21 21 20 19 19 19 19 20 19 18 17 16 16 15 15 15 15 16 16 16 16 15 15 14 14 14 13 13 13 12 11 10 9 9 9 8 9 8 8 8 8 8 8 8 9 9 10 10 11 11 12 12 13 14 14 15 15 15 15 15 15 15 15 15 16
32 31 30 29 29 28 29 28 28 27 27 26 26 26 25 24 23 23 22 22 22 21 21 20 19 19 19 20 19 18 18 17 16 16 17 17 17 17 17 17 16 16 16 16 15 15 14 14 14 13 12 12 11 11 10 10 10 10 9 9 9 8 9 9 9 10 10 11 11 12 13 13 13 14 15 16 17 16 16 16 16 15 15 15 16
32 31 30 29 29 28 28 29 29 29 28 28 27 26 26 26 25 25 24 23 23 23 22 21 20 20 20 19 19 18 18 17 17 18 18 18 18 18 18 17 17 17 17 16 16 16 16 16 16 15 15 14 13 13 12 12 12 11 11 11 11 10 10 10 10 11 11 11 12 13 14 15 15 15 16 17 17 18 18 18 17 16 16 16 16
33 32 31 30 29 29 29 29 29 29 28 27 27 27 26 26 27 27 26 25 25 24 23 23 22 21 21 20 19 19 19 19 19 19 20 20 20 19 19 18 18 18 18 17 17 17 17 17 17 17 16 16 15 15 15 14 13 13 12 13 13 12 12 11 12 12 13 13 12 13 15 17 17 18 18 18 18 18 18 19 19 18 18 17 17
35 34 32 31 30 31 31 29 28 28 28 27 27 27 26 26 27 28 28 27 27 26 25 25 24 23 22 22 21 21 21 21 21 21 22 22 21 21 20 19 19 19 19 18 18 18 18 18 18 18 17 17 17 17 16 16 15 15 15 15 15 14 13 14 14 14 14 15 15 15 15 16 18 19 20 20 20 20 20 20 20 20 20 19 19
35 35 33 32 32 33 32 30 29 29 28 28 28 27 26 27 29 31 30 30 29 28 28 27 26 26 25 25 24 24 24 23 23 24 25 24 23 23 22 21 21 21 20 20 20 20 20 20 20 19 19 19 19 18 18 18 18 18 18 18 18 17 16 16 16 16 16 17 19 19 17 16 17 19 22 23 22 22 22 22 23 23 23 22 20
36 35 34 34 35 34 33 33 33 32 31 31 31 30 28 29 31 33 32 32 32 31 30 30 29 29 29 29 28 28 27 26 27 28 27 26 26 26 25 24 24 23 23 22 22 22 22 22 22 21 21 21 21 20 21 22 22 21 20 19 18 18 18 18 18 18 17 18 21 21 19 17 17 20 24 24 24 24 23 23 24 25 25 25 24
37 36 36 36 36 35 35 35 35 34 34 34 33 32 31 31 33 34 34 34 34 33 33 33 32 32 32 32 31 31 30 29 29 30 29 29 29 28 27 26 25 25 25 24 25 25 25 25 25 24 24 23 23 23 24 25 24 23 22 20 19 18 19 19 19 18 18 19 21 22 20 18 17 20 25 26 24 24 25 25 25 26 26 27 26
36 37 38 38 38 37 37 37 36 35 36 36 36 36 35 34 36 36 36 36 36 36 36 36 35 35 34 34 33 33 33 31 31 32 32 31 30 29 28 27 26 26 26 26 27 28 27 27 27 27 27 26 25 26 27 26 26 25 24 23 22 21 21 20 19 19 19 20 21 22 22 21 19 23 27 27 25 25 25 25 26 26 27 27 27
38 40 41 41 40 40 40 39 38 38 38 38 39 39 38 38 38 38 39 39 39 38 38 38 38 37 35 34 35 35 35 35 34 34 34 32 32 32 30 28 28 27 28 28 29 28 29 29 29 28 29 28 28 29 29 28 28 27 27 26 26 25 24 23 22 22 22 21 21 22 24 24 24 26 29 28 27 27 27 27 27 27 27 28 27
32 35 40 43 43 42 41 39 39 40 41 41 41 41 41 41 41 42 42 42 41 39 38 39 40 39 38 37 37 37 37 37 36 37 37 36 35 34 33 31 30 29 28 29 30 31 30 30 30 30 29 30 31 31 31 31 30 30 29 29 28 27 26 25 25 25 25 24 24 24 25 26 27 28 29 29 29 29 30 30 30 29 29 28 27
19 21 26 35 42 44 43 42 42 43 45 45 45 44 44 43 43 45 45 44 43 42 42 42 41 40 40 40 40 40 38 36 36 38 40 39 37 36 35 33 32 32 32 31 31 32 32 33 33 31 30 32 33 33 33 34 33 32 32 31 29 27 26 26 27 28 28 27 27 27 27 28 28 28 28 29 30 30 31 31 31 31 31 31 30
14 12 13 20 29 35 38 40 44 48 49 48 48 47 46 47 48 49 48 48 47 47 47 46 43 41 42 43 44 43 40 37 37 38 41 41 40 38 38 36 35 35 35 34 32 31 33 35 34 33 34 35 34 34 35 35 34 33 33 33 32 30 28 28 29 30 30 29 29 30 29 30 30 30 30 30 31 31 32 32 31 31 32 33 34
18 14 12 13 18 24 27 28 32 40 44 46 47 47 47 48 49 49 49 50 51 51 51 50 46 43 44 45 45 45 42 39 39 39 40 41 41 40 39 38 38 37 37 36 34 32 33 35 35 35 37 37 36 36 36 36 35 35 35 35 34 32 32 32 32 31 31 31 31 32 33 33 33 33 33 34 35 34 34 33 32 31 31 32 35
22 19 17 16 17 23 26 23 21 25 30 33 35 36 39 45 46 45 47 48 50 52 54 53 50 47 46 46 46 47 45 42 41 41 41 42 41 40 39 40 39 38 37 36 34 32 32 34 36 38 38 38 37 36 37 37 36 35 35 35 35 34 35 34 33 33 34 34 33 33 34 35 35 36 37 37 37 37 37 36 33 31 31 32 34
23 22 20 20 21 23 27 27 23 21 21 22 21 18 22 35 41 40 41 43 45 50 53 54 53 50 48 48 48 48 47 44 42 42 42 42 41 40 39 39 39 38 38 36 34 33 32 32 34 36 37 37 37 36 36 36 36 36 35 34 33 35 36 35 35 36 37 37 37 35 35 37 38 38 39 39 38 38 39 38 35 31 31 31 32
23 22 21 21 23 26 28 28 28 26 24 23 21 16 15 21 27 30 34 37 40 43 47 50 53 52 50 49 48 47 46 44 43 43 42 42 41 39 38 39 38 38 39 37 34 34 34 33 34 35 37 37 37 37 36 36 36 35 35 34 34 36 37 38 38 39 40 40 40 39 38 38 37 36 38 40 41 40 40 39 36 32 31 30 30
23 23 23 22 23 26 28 28 27 29 29 28 27 26 23 22 21 21 24 28 34 39 42 43 46 47 47 47 45 44 44 44 43 43 42 42 41 39 39 39 39 39 40 39 36 35 35 36 37 37 37 37 38 38 37 37 37 36 35 37 37 38 40 42 41 41 42 42 42 42 42 41 39 38 39 40 40 40 39 37 35 33 32 30 29
24 25 25 25 24 25 27 27 26 26 29 29 28 27 27 26 25 23 20 20 24 32 39 41 41 41 42 43 43 42 43 44 44 44 44 44 43 42 41 40 40 40 41 41 39 37 36 37 38 38 38 38 38 38 39 39 39 38 38 40 41 41 44 45 44 44 44 44 45 44 42 41 42 45 45 42 38 36 36 35 35 35 33 31 29
25 26 27 27 26 25 26 27 26 26 27 29 29 27 27 27 28 27 26 23 21 22 29 36 39 38 38 40 42 41 40 40 42 43 44 44 45 45 44 43 42 42 42 42 41 39 38 39 40 41 40 40 40 40 42 42 42 41 42 42 44 44 44 44 43 43 43 44 45 44 41 40 42 45 44 41 37 35 34 34 35 35 34 31 30
25 26 27 28 27 27 27 27 27 27 27 28 28 26 24 24 25 25 26 27 25 22 22 26 31 34 35 36 39 40 39 40 41 42 42 43 44 45 45 45 44 44 45 44 43 42 42 43 44 44 44 44 44 44 44 45 45 44 44 43 43 42 40 38 36 36 38 39 40 40 40 39 39 39 39 38 37 36 34 34 35 34 33 32 31
25 26 27 28 28 28 28 28 27 27 27 28 28 26 23 21 22 22 23 24 25 24 22 22 23 26 27 27 29 30 31 32 32 33 34 37 40 43 45 46 47 46 47 47 46 45 46 47 45 44 44 44 45 45 45 45 46 45 44 43 41 38 36 34 33 34 36 38 38 39 41 40 38 40 42 41 39 36 34 33 32 31 31 31 31
25 26 26 27 28 28 28 28 27 27 27 27 27 27 25 22 21 22 21 21 22 23 23 23 22 22 21 21 21 21 22 23 24 24 26 29 31 35 39 42 44 45 47 49 49 49 50 48 44 40 39 39 39 40 41 42 42 42 41 39 38 36 35 34 34 33 34 37 39 41 42 41 40 39 38 36 34 31 29 28 28 28 29 29 29
26 26 26 27 27 28 28 28 28 27 27 27 27 27 26 24 23 23 23 23 23 23 24 25 26 26 25 24 23 23 22 24 25 25 26 26 26 27 29 32 35 37 39 41 42 43 45 44 40 37 36 36 36 35 36 37 37 37 36 36 36 35 34 34 35 33 32 35 39 41 42 44 40 32 26 23 23 24 25 25 26 26 28 29 30
27 27 27 27 27 28 28 29 29 29 28 28 28 28 28 27 26 25 26 26 26 25 26 26 27 29 31 31 31 31 30 30 30 30 29 29 28 27 27 28 29 30 31 32 32 33 35 35 34 34 34 35 35 35 34 35 35 36 35 35 36 35 34 34 34 33 32 35 39 40 41 41 36 28 22 21 22 23 25 26 28 30 33 35 36
29 29 28 29 29 29 29 29 30 30 30 30 30 30 30 30 29 29 29 29 29 28 28 28 29 30 32 34 36 37 37 37 37 37 36 35 33 31 30 29 30 30 30 30 31 31 32 33 33 34 34 35 36 36 35 35 36 37 37 37 37 37 36 35 34 35 35 37 40 40 39 36 32 31 31 30 27 27 29 30 33 35 38 39 38
30 30 30 30 31 31 31 31 31 31 32 32 32 32 32 32 32 32 32 31 31 31 31 31 31 31 33 35 37 38 39 39 39 39 39 38 37 36 35 33 32 33 33 33 33 33 34 34 35 35 36 37 38 38 38 38 38 38 39 39 39 39 38 35 32 33 35 38 40 41 41 42 43 44 43 41 37 35 34 34 35 36 37 38 38
31 31 32 32 32 32 32 33 33 33 34 34 34 35 35 35 35 35 35 35 34 34 34 34 34 34 34 35 36 38 39 40 39 39 38 38 38 38 38 37 35 35 35 36 36 37 37 37 37 38 38 39 40 40 40 40 40 40 40 41 41 40 39 36 34 35 39 42 43 45 46 48 49 49 48 47 43 39 36 35 36 37 38 39 38
30 31 32 32 33 33 34 34 34 34 35 36 36 37 37 38 38 38 38 38 38 38 37 37 37 37 37 37 37 38 39 40 40 40 39 39 39 39 39 38 38 38 38 39 40 40 40 40 40 40 41 41 42 42 42 42 42 42 42 43 43 42 42 40 38 38 41 44 46 48 49 49 49 49 49 46 42 39 38 38 39 40 42 42 42
30 31 32 33 33 34 35 35 35 35 35 36 37 38 38 39 40 40 41 41 41 42 41 41 40 41 41 41 41 41 41 42 42 42 42 42 41 41 40 40 40 40 40 41 42 42 43 43 43 44 44 44 45 45 45 46 46 46 45 45 45 45 45 44 42 42 43 45 46 49 51 52 52 50 47 44 42 41 42 42 43 44 45 44 44
31 31 32 32 33 34 34 35 36 36 37 37 37 38 39 39 40 41 42 42 43 43 43 43 43 43 43 44 44 44 44 44 44 45 45 45 45 45 44 43 43 43 43 43 43 44 45 45 46 46 47 47 48 48 48 49 49 49 49 48 48 48 47 47 47 47 47 47 48 49 51 51 50 48 47 47 47 46 46 46 46 46 47 47 47
31 31 32 32 33 34 34 35 36 36 37 38 38 38 39 40 41 42 42 43 44 44 45 45 45 45 45 45 46 47 47 47 47 48 48 48 49 49 48 48 47 47 47 47 47 47 47 48 48 49 49 50 51 51 52 52 52 52 52 52 51 51 50 50 50 51 51 50 51 52 53 54 53 53 52 51 50 49 49 49 49 50 51 53 53
27 28 29 30 31 32 33 34 35 36 37 38 39 40 40 41 42 42 43 44 44 45 46 46 47 47 47 47 47 47 48 49 49 49 50 50 51 51 52 52 52 51 51 50 50 51 51 51 51 51 52 52 53 53 54 54 55 55 55 55 55 54 54 53 53 53 54 55 55 56 57 58 58 57 56 54 53 53 54 54 55 55 56 57 58
25 26 27 28 29 30 31 32 33 35 36 37 38 39 40 41 42 43 44 45 46 46 47 47 47 48 48 48 48 49 49 49 50 50 51 51 52 52 53 53 54 54 54 54 54 54 54 54 54 55 55 55 55 56 56 56 56 57 57 57 57 57 56 56 55 55 56 56 57 58 58 57 56 56 55 55 55 56 57 58 58 58 58 59 62
27 28 29 30 31 32 33 34 35 35 37 38 38 39 40 41 42 43 44 45 46 47 48 48 49 49 49 49 49 50 50 50 51 51 51 52 52 52 53 54 54 55 56 56 56 56 56 56 56 56 57 57 57 57 58 58 58 58 59 59 59 58 57 57 57 57 57 57 57 57 56 55 55 57 58 58 58 59 59 59 60 61 61 62 63
31 31 32 33 34 35 36 37 38 39 39 40 41 42 43 43 44 44 45 45 46 46 47 47 49 50 51 51 51 51 51 51 52 52 52 52 52 53 53 53 53 54 55 55 56 57 57 58 58 57 57 58 58 58 58 58 58 58 59 60 60 60 60 59 58 58 57 56 56 55 55 54 55 57 58 58 59 59 60 60 62 63 63 63 64
34 35 36 36 38 39 40 41 41 42 43 43 44 44 44 45 46 47 47 48 48 48 47 47 47 48 49 50 52 53 53 53 53 53 53 53 53 53 53 53 53 54 54 54 55 55 56 57 58 58 58 58 58 58 58 58 57 57 58 58 59 59 60 60 59 59 58 57 56 56 57 57 58 59 60 60 60 60 60 61 61 61 61 62 63
37 38 39 40 41 41 42 43 44 44 44 45 45 45 45 46 47 48 48 49 49 50 50 50 49 48 48 49 50 51 52 53 54 54 54 54 54 54 54 54 54 54 55 55 54 54 55 55 55 56 57 58 58 58 58 58 58 57 57 57 57 57 57 58 58 58 58 58 58 58 59 60 60 61 62 62 62 61 60 61 61 62 62 63 64
39 40 41 42 43 43 44 44 45 45 45 45 45 45 45 46 47 47 48 49 50 51 51 52 52 51 51 50 50 50 51 51 52 53 54 55 55 55 55 55 55 56 56 56 56 56 55 55 55 55 55 56 56 57 57 57 57 57 57 57 57 56 56 56 56 57 57 57 57 58 58 59 60 62 63 65 65 65 64 64 64 65 65 66 67
41 41 42 43 43 43 44 44 45 45 45 45 45 45 45 46 47 47 48 49 50 50 52 53 53 52 52 53 53 52 52 52 52 52 53 54 55 55 56 56 56 56 56 57 57 57 57 57 57 56 56 55 55 55 55 56 56 56 56 56 56 56 56 56 56 56 56 57 57 57 58 58 58 59 60 61 62 62 63 63 63 63 63 64 64
41 41 42 42 43 43 44 44 45 45 45 46 46 46 46 46 47 48 48 49 49 50 51 53 53 53 54 54 54 54 54 54 53 53 54 54 54 55 56 56 56 56 56 56 56 57 57 58 58 58 57 57 57 56 56 56 55 55 55 55 54 54 54 55 55 55 55 55 56 56 56 56 57 57 57 57 58 59 60 60 61 62 62 62 62
41 41 42 42 43 44 44 45 45 46 46 46 47 48 48 48 48 49 49 50 50 50 51 53 53 54 54 55 56 56 56 56 55 55 55 55 55 56 56 56 56 57 56 56 56 56 56 57 58 58 58 58 58 57 57 57 56 56 56 56 55 55 55 54 54 54 54 54 54 54 54 55 55 56 56 57 57 58 58 59 59 60 60 61 61
42 42 43 43 44 44 45 46 46 46 47 47 47 48 48 48 48 49 50 50 50 50 52 53 53 53 54 55 56 56 56 56 57 56 56 56 57 56 57 57 57 57 57 57 56 56 56 56 56 57 57 58 58 58 58 57 57 57 57 57 57 57 56 56 55 55 55 55 55 55 55 55 55 55 55 56 56 56 57 57 57 57 57 58 58
43 43 44 44 45 45 45 46 46 46 47 47 47 48 49 49 50 50 50 50 51 51 52 53 53 54 54 54 55 56 56 56 57 57 57 57 58 58 57 58 58 58 58 58 57 57 57 56 56 55 56 56 57 57 57 57 57 57 57 56 56 56 56 55 55 55 55 55 55 55 55 55 55 55 55 54 54 54 54 54 54 54 54 54 54
45 45 45 45 45 45 45 46 46 47 47 48 48 49 50 50 51 51 51 51 51 52 53 53 54 55 55 55 55 55 55 56 57 58 58 58 58 58 58 58 58 58 58 58 58 58 58 57 56 55 55 55 55 55 55 55 55 56 56 56 55 55 54 54 54 54 54 54 54 54 53 53 53 53 52 52 52 52 51 51 51 51 51 51 51
46 46 46 46 45 45 46 47 47 47 48 48 48 48 48 48 48 48 48 47 48 49 50 51 52 53 55 56 56 55 55 56 56 57 57 57 57 58 58 58 58 58 58 58 58 58 57 57 57 56 55 54 54 53 53 53 54 54 54 54 54 54 53 53 52 52 52 51 51 51 50 50 50 50 50 49 49 49 49 49 50 50 50 50 50
45 45 45 45 46 46 46 46 47 47 46 46 45 44 44 43 43 43 42 42 43 44 45 47 48 50 52 53 54 54 54 55 55 55 55 55 56 56 57 57 57 58 58 58 58 57 57 57 56 56 55 54 53 52 52 51 51 51 51 51 51 51 51 51 50 50 50 50 49 48 48 48 48 47 47 47 47 47 47 47 47 47 48 48 49
Wind_Direction
228 228 227 226 224 224 225 227 229 230 230 229 228 228 227 226 225 225 224 226 227 227 228 227 224 224 225 227 229 229 231 233 234 234 232 231 233 235 235 235 235 237 239 241 242 242 242 242 242 245 246 243 246 251 255 259 261 263 265 266 270 274 279 282 284 289 295 301 307 312 312 310 308 308 307 310 316 321 324 329 334 336 336 338 341
229 229 229 230 230 228 228 230 231 233 234 234 233 232 231 230 228 227 227 228 229 228 230 230 229 227 226 227 229 230 231 233 235 235 233 232 235 238 239 239 238 240 242 243 245 244 244 244 245 247 248 248 250 251 252 258 261 261 264 267 272 279 283 285 289 292 295 298 302 304 304 304 305 306 307 309 310 312 314 320 326 328 330 332 336
228 229 229 231 232 232 232 233 234 236 237 238 238 236 235 234 232 231 230 230 231 231 231 231 231 231 231 230 229 229 228 230 232 233 232 231 233 236 238 240 240 240 241 242 243 244 244 244 246 249 251 254 255 254 257 263 267 267 266 267 272 278 283 284 287 289 291 293 294 295 297 299 301 303 305 306 307 309 312 316 321 324 326 328 331
226 228 229 230 231 232 234 236 237 238 240 241 242 241 239 238 237 235 234 232 232 233 233 233 233 232 232 232 231 229 228 228 231 233 233 232 232 233 234 236 239 240 239 241 242 243 244 246 247 248 250 251 253 255 257 262 267 269 269 270 272 275 279 281 284 286 289 289 289 290 293 295 297 300 302 303 305 308 312 316 318 321 323 324 325
227 228 229 230 230 231 233 235 237 239 241 243 246 247 246 243 241 239 238 237 236 235 234 234 235 234 233 233 232 231 229 228 229 231 232 232 232 232 233 234 236 238 239 240 242 243 244 245 247 247 247 247 251 255 256 257 260 261 263 265 268 270 274 278 283 285 286 287 288 289 292 295 297 299 300 301 303 306 309 312 314 316 317 318 318
229 230 231 232 231 231 232 234 236 237 239 242 245 248 251 250 247 243 240 239 239 239 238 236 236 236 235 235 234 232 230 228 230 232 232 232 233 233 234 234 235 237 238 239 241 243 245 246 248 249 249 250 253 256 258 259 261 262 263 264 264 266 269 273 277 280 282 285 288 290 292 293 294 296 297 299 302 304 306 306 308 310 311 311 310
231 231 232 233 233 233 233 234 235 235 236 239 241 243 247 250 250 248 244 241 240 241 241 239 238 238 238 239 238 236 234 232 232 234 234 234 234 234 235 236 236 237 238 239 240 242 245 247 248 250 251 252 254 257 258 260 264 267 271 271 269 268 270 274 278 280 283 287 291 296 297 296 295 295 296 299 301 302 303 303 304 306 306 305 304
232 231 232 233 233 234 235 235 236 236 237 240 243 244 245 247 249 248 246 245 243 242 242 241 239 240 241 242 242 241 240 239 238 238 238 238 237 236 237 237 238 239 239 240 241 242 245 247 248 251 253 253 253 254 255 258 261 264 267 270 271 271 275 280 283 283 285 288 290 293 295 297 299 299 297 298 299 299 299 300 301 302 303 304 303
235 234 232 233 233 235 237 238 239 239 238 240 242 244 245 246 248 248 246 244 244 243 243 243 242 242 242 243 244 243 242 242 242 242 242 241 241 241 241 240 241 243 243 243 244 244 246 247 249 251 252 254 254 253 255 257 258 258 259 263 266 268 272 276 277 280 284 284 282 281 284 291 296 297 296 295 295 295 296 297 297 298 300 302 302
236 235 234 234 234 235 238 240 240 241 243 243 243 242 242 242 247 251 248 245 244 243 244 245 246 246 246 245 245 245 244 243 242 243 243 243 243 243 243 243 244 245 246 247 247 247 248 248 250 251 251 253 255 256 257 256 255 253 252 253 256 260 266 267 266 270 275 277 279 280 283 288 290 290 291 291 291 292 293 294 295 296 298 298 299
235 235 234 234 235 236 239 240 240 241 243 245 245 245 244 243 247 253 254 250 248 245 244 244 246 247 248 248 248 248 247 246 245 244 243 242 243 243 243 244 245 247 249 250 250 250 251 252 252 252 253 254 255 258 259 258 257 256 255 255 255 258 264 265 262 263 266 272 277 279 282 286 286 285 287 288 289 291 292 292 294 295 296 296 296
234 234 233 235 236 237 238 239 241 242 242 244 246 247 246 243 244 249 253 253 252 249 246 244 245 247 249 250 250 251 250 250 250 249 247 245 244 243 243 244 246 247 249 250 251 251 251 252 254 255 255 255 256 258 259 260 261 262 262 262 262 263 265 266 266 266 266 269 274 277 279 281 277 278 283 286 288 290 291 292 292 293 294 295 296
236 233 232 234 236 237 237 239 242 243 242 243 245 247 246 244 243 245 248 250 251 251 251 248 246 245 248 251 253 255 255 253 253 253 252 250 249 247 245 245 247 248 250 251 252 253 252 253 255 256 257 257 258 258 259 261 263 264 264 264 263 263 262 262 264 266 265 267 273 278 279 277 273 275 280 283 287 290 292 294 294 293 293 293 295
242 239 236 235 235 235 236 238 241 242 242 243 244 246 246 246 246 246 247 248 249 251 253 254 251 248 247 250 253 256 258 257 256 256 256 255 254 253 249 246 246 248 251 252 254 255 256 256 256 257 258 257 258 259 260 261 261 263 264 263 260 259 258 257 259 263 265 270 275 279 281 280 277 277 278 281 285 289 291 294 297 296 294 293 293
243 242 240 237 236 236 237 238 241 242 243 244 245 246 247 248 250 250 250 251 250 250 253 255 254 251 249 247 247 250 252 254 256 257 258 257 256 256 254 251 248 247 248 252 256 257 256 256 256 258 260 259 258 259 260 260 260 260 261 261 260 260 260 260 262 265 268 272 273 274 278 279 278 277 279 282 285 288 290 293 295 295 295 295 294
243 241 240 237 237 238 239 241 243 245 245 246 247 248 249 250 251 252 253 254 252 251 251 251 250 253 252 249 246 245 245 247 251 255 257 257 257 257 257 255 253 250 248 249 254 257 256 255 254 258 262 261 258 258 259 260 260 260 261 262 261 262 262 263 265 266 269 273 273 272 274 276 277 280 283 285 287 288 289 290 291 292 292 294 294
261 254 246 237 235 237 240 243 245 246 246 247 248 251 252 252 252 253 254 254 253 251 250 250 249 251 251 250 249 248 244 241 244 249 253 254 254 256 257 256 254 252 249 249 252 256 259 258 256 258 262 260 257 257 259 260 261 262 263 263 263 262 263 263 264 267 271 273 273 272 274 277 279 281 283 286 288 289 288 287 289 289 289 290 292
281 281 271 248 236 233 234 242 248 247 246 246 246 249 253 253 253 254 253 252 252 251 250 250 250 248 247 246 247 248 246 242 242 246 250 252 252 252 253 254 253 251 249 249 251 255 259 260 258 258 260 258 257 257 258 258 260 261 262 264 264 265 264 263 264 267 272 273 272 272 275 278 281 282 283 284 287 288 287 286 288 289 288 289 291
285 287 281 266 252 238 234 244 253 243 238 241 242 248 256 256 252 251 251 249 249 250 249 248 247 245 243 242 243 244 245 244 244 247 249 250 250 250 250 250 250 248 247 248 249 251 256 260 261 259 259 258 256 257 257 257 258 259 259 261 263 265 265 266 267 268 271 273 274 274 275 277 279 281 281 282 284 286 286 286 288 290 288 288 288
282 285 285 280 275 263 254 261 265 249 236 237 235 239 255 255 250 250 250 248 246 246 247 247 246 245 244 243 242 242 242 243 245 248 249 248 249 249 250 250 249 247 246 247 249 250 255 261 263 262 262 261 259 257 257 257 257 258 258 259 262 263 264 266 267 268 270 272 273 274 275 276 278 277 276 276 278 281 283 283 285 287 286 287 289
279 282 283 282 281 278 274 276 276 269 263 262 259 260 269 266 261 258 253 248 243 242 244 245 245 246 246 244 243 243 242 242 245 248 249 249 248 247 248 250 250 249 248 248 248 250 254 258 258 256 256 259 259 258 258 258 259 260 261 263 263 262 263 264 265 266 269 271 272 273 273 274 276 275 272 272 274 276 277 278 278 281 284 287 290
275 276 276 277 278 279 279 281 282 279 279 281 280 280 282 285 284 277 265 256 249 245 245 245 245 246 246 244 244 246 246 245 246 249 251 251 249 246 246 249 250 249 248 248 249 252 254 256 256 255 254 255 258 259 259 259 260 262 264 266 265 264 264 265 266 268 270 272 273 274 273 274 275 272 267 268 270 270 271 271 273 277 282 285 287
270 270 271 272 273 276 278 280 282 283 284 285 286 286 284 284 285 287 287 281 267 255 250 248 249 250 247 245 246 250 250 248 248 250 252 252 250 247 246 248 249 248 248 248 250 254 257 259 260 260 258 258 259 260 261 261 262 264 266 268 269 268 268 268 268 270 271 271 271 272 272 273 273 269 266 267 269 268 267 267 270 275 279 280 280
266 267 269 270 271 272 274 276 278 279 281 283 285 287 288 287 286 286 287 290 290 278 261 251 248 250 249 246 247 249 251 251 251 253 254 253 251 248 247 248 249 248 247 248 250 254 259 261 262 262 261 261 261 261 262 263 264 266 268 269 270 270 271 271 270 269 269 269 270 270 269 269 269 267 265 266 269 268 266 265 267 271 273 273 275
262 263 264 267 268 268 269 271 273 275 277 280 283 286 288 289 288 287 285 285 288 291 283 265 252 249 250 249 248 249 251 254 255 257 257 254 251 249 248 248 248 248 248 250 252 255 258 260 261 262 262 262 261 261 262 263 265 266 267 268 269 270 271 271 269 268 268 268 269 269 268 266 265 264 266 269 270 267 264 264 266 267 267 267 271
259 259 260 262 263 264 265 266 268 270 272 275 278 281 283 284 283 281 281 281 281 283 285 280 264 252 247 244 244 245 249 252 255 257 256 252 248 248 248 249 249 251 252 254 255 257 258 260 261 261 261 261 261 261 262 263 265 266 265 265 265 267 270 270 267 266 268 270 273 273 270 265 261 261 266 271 271 266 263 264 263 262 262 264 268
255 256 257 258 260 262 263 264 264 265 266 268 271 275 277 276 276 275 275 274 274 273 274 274 268 258 247 240 240 242 243 245 249 252 253 250 246 244 244 246 248 250 252 254 255 256 257 257 256 255 256 257 257 258 258 258 259 260 260 260 261 264 268 270 268 269 272 275 277 275 271 269 266 263 265 268 267 263 261 261 260 260 262 264 266
253 253 254 255 256 258 260 262 262 262 262 263 264 267 269 268 268 268 269 268 268 267 265 264 262 259 253 248 247 246 244 244 246 250 254 256 252 247 244 243 243 245 246 248 249 249 250 250 248 248 251 253 255 257 258 258 258 258 259 261 264 266 269 269 271 274 274 271 269 267 267 269 267 262 263 271 270 265 262 260 259 261 264 266 270
257 257 256 255 255 256 257 259 260 260 261 261 260 261 263 264 263 262 262 263 265 263 261 259 258 257 256 254 253 255 256 256 257 259 262 262 260 257 253 249 247 246 245 246 247 247 248 250 251 252 253 255 257 260 262 263 264 265 266 267 269 271 271 270 271 271 266 259 258 257 257 257 256 257 269 282 281 273 269 266 266 268 270 272 274
262 262 261 260 259 259 258 259 260 260 260 261 261 260 260 262 262 262 260 260 261 261 260 259 257 257 257 257 257 259 261 263 264 265 266 265 264 262 259 255 253 250 249 250 252 252 253 255 256 257 257 259 261 262 264 265 266 267 269 270 271 272 272 272 273 272 268 263 261 256 250 251 257 265 275 284 285 281 277 274 272 272 272 273 273
265 266 266 265 264 263 262 262 262 262 262 262 262 263 262 262 262 263 263 261 260 260 260 259 258 256 257 258 259 261 263 265 266 267 268 268 268 266 263 260 257 255 254 253 253 253 255 257 258 259 260 261 262 263 264 264 264 266 268 269 271 272 272 271 270 267 262 260 260 256 255 260 266 269 276 284 287 284 279 276 272 268 267 267 267
268 269 269 270 269 268 267 266 265 265 265 265 265 265 265 265 264 264 265 265 264 262 260 260 260 259 257 257 258 259 262 264 265 266 267 268 268 267 267 264 261 259 256 254 253 253 254 256 258 259 260 262 263 263 264 264 264 266 267 269 270 271 270 269 266 258 253 255 258 258 259 263 267 271 278 284 285 280 276 272 268 266 266 266 265
271 271 271 272 273 272 272 271 270 268 267 267 267 267 267 267 267 266 266 266 266 265 264 262 262 262 261 260 258 258 260 262 263 265 265 265 265 265 265 265 263 261 258 257 256 255 254 255 257 258 260 261 262 263 263 263 264 266 267 268 269 269 269 269 267 261 257 258 260 261 263 267 271 276 280 281 278 274 272 269 268 268 268 269 269
274 274 274 274 274 275 274 274 274 273 272 271 270 270 270 269 269 268 268 267 267 268 267 266 264 263 264 263 262 261 260 260 261 263 263 264 264 263 262 261 261 261 260 259 258 258 257 257 257 258 259 260 261 262 263 263 264 265 265 266 267 267 268 268 267 264 262 261 262 262 265 268 271 273 274 273 271 270 269 270 270 270 269 270 271
275 276 276 277 277 277 277 277 277 277 277 276 274 273 273 272 271 270 270 269 269 269 269 269 268 267 266 265 265 265 263 262 262 262 262 263 264 264 263 262 261 261 260 260 259 258 258 258 258 259 260 261 262 263 263 264 265 265 265 265 265 265 266 266 266 265 264 264 264 265 266 267 268 270 271 272 272 272 271 272 272 271 271 272 273
274 275 276 277 278 278 278 278 278 278 278 278 277 276 275 274 273 273 272 271 270 270 269 270 270 270 269 268 267 267 266 265 264 263 263 263 263 264 264 264 264 262 261 260 260 259 259 259 259 259 259 260 261 262 263 264 265 266 267 267 267 267 266 266 266 265 264 263 262 262 262 263 265 268 270 273 273 273 273 274 275 275 274 275 275
279 279 280 280 280 281 281 281 281 281 280 280 279 278 277 276 275 274 273 272 271 271 270 270 270 270 271 271 270 269 269 268 267 266 265 264 264 264 264 264 265 265 264 263 262 261 261 261 261 260 260 261 261 262 262 263 264 264 266 267 267 268 268 267 267 267 267 266 265 265 265 266 268 270 273 274 273 272 273 275 275 276 276 276 276
283 284 284 284 284 284 284 284 284 284 284 283 282 281 280 279 278 276 275 273 272 271 271 270 270 270 270 271 271 271 270 270 269 269 268 267 266 265 265 264 264 265 266 266 265 264 264 263 263 263 263 263 263 263 263 263 264 264 265 265 266 266 267 268 267 267 267 267 268 268 269 270 271 272 273 272 271 272 274 275 275 275 276 276 276
284 284 284 284 285 285 285 285 285 285 285 285 284 283 282 281 280 278 277 275 274 272 271 271 271 270 270 270 270 271 271 270 270 270 270 270 269 268 268 267 266 266 266 266 266 266 266 266 265 265 265 265 265 265 265 265 265 265 265 266 266 266 267 267 268 268 267 268 268 268 268 268 268 269 269 268 268 269 270 270 270 270 271 272 273
287 287 286 286 286 286 286 285 285 285 284 284 283 283 282 281 280 278 277 276 275 274 273 272 271 271 270 270 270 270 270 270 270 270 270 270 270 270 270 270 269 269 268 267 267 267 267 267 267 267 267 267 267 267 268 268 267 267 267 267 267 267 268 268 269 269 269 268 268 267 267 266 265 266 267 267 268 269 269 268 269 270 271 271 270
290 289 288 288 287 287 286 286 285 285 284 283 282 281 281 280 279 277 276 275 275 274 273 272 271 271 270 270 270 270 271 271 271 271 271 270 270 270 270 270 270 270 270 270 270 269 269 269 269 269 269 268 268 268 268 269 269 269 269 269 268 268 269 269 269 270 270 269 267 266 266 266 266 266 268 268 269 269 269 269 270 271 272 272 272
290 289 289 288 288 288 287 287 286 286 285 284 283 282 280 279 277 276 276 275 274 274 273 272 271 270 270 269 269 269 269 270 271 271 271 272 271 271 271 271 270 270 270 270 270 270 270 269 269 269 269 270 270 270 270 269 269 269 269 269 269 269 269 269 270 270 270 270 269 268 267 267 266 266 267 268 268 269 269 270 270 271 272 273 274
290 290 290 289 289 288 288 287 287 286 285 284 283 282 281 279 278 276 275 275 274 274 274 273 272 271 270 269 269 268 268 268 269 270 270 271 272 272 272 272 271 271 271 270 270 270 270 270 269 269 269 269 269 270 271 271 271 271 270 270 269 269 268 268 268 268 269 269 269 269 268 268 267 267 267 267 268 269 270 272 272 273 274 274 275
290 290 290 290 289 289 288 287 287 286 285 284 283 282 280 280 278 277 276 275 274 274 274 273 273 272 271 271 270 269 269 268 268 268 269 269 270 271 272 272 272 272 272 272 271 271 271 270 270 270 269 269 269 269 269 270 270 271 271 272 272 272 271 270 269 268 268 268 269 269 270 270 270 270 270 270 270 270 271 272 272 273 273 274 274
291 291 290 290 290 289 288 288 287 286 285 284 283 282 280 279 278 277 276 275 275 274 273 273 273 273 272 272 271 271 270 270 269 269 268 268 269 269 270 271 271 272 272 272 271 271 271 270 270 270 270 270 269 269 269 269 269 269 270 270 271 271 271 272 272 272 271 271 271 272 272 273 273 273 274 274 273 273 273 274 275 276 276 277 278
292 292 291 291 290 289 289 288 287 286 285 284 283 282 281 280 278 277 277 276 275 274 273 273 272 272 272 272 272 272 272 271 271 270 270 269 269 268 269 269 270 270 271 271 271 270 270 269 269 269 269 269 269 269 269 269 269 269 269 269 269 269 270 270 271 271 272 272 273 273 273 274 274 275 275 276 276 276 277 277 278 279 280 281 282
293 292 291 291 290 289 289 288 287 286 285 284 283 283 282 281 279 278 277 276 276 275 274 274 273 272 271 271 271 272 272 272 272 272 271 271 270 269 269 268 268 269 269 270 270 270 269 269 268 268 268 268 269 269 269 269 269 269 269 268 269 269 270 271 271 271 272 272 273 273 273 274 274 275 276 277 277 278 279 280 280 281 282 283 284
293 293 292 291 291 290 289 288 287 286 286 285 284 283 282 281 279 278 277 277 276 275 274 274 273 272 271 271 270 270 270 271 271 271 271 271 271 270 270 269 269 268 268 269 269 269 269 269 268 268 268 267 268 268 268 268 269 269 268 268 268 269 269 270 271 271 272 272 273 273 274 275 275 276 277 277 278 279 280 281 281 282 283 283 284
294 293 292 292 291 290 289 288 287 286 285 285 283 282 281 280 279 278 278 277 276 275 274 274 273 273 272 270 269 269 269 268 269 269 269 269 270 270 270 269 269 269 268 268 268 268 269 269 269 268 268 267 267 267 267 268 268 269 269 269 270 270 270 270 270 271 271 271 272 273 273 274 274 275 276 277 278 279 280 280 281 282 283 283 284
294 293 293 292 291 290 289 289 288 287 286 285 284 282 281 279 279 278 279 279 278 277 277 276 275 274 273 271 270 269 268 268 267 267 267 267 267 268 268 268 268 268 268 268 267 267 268 268 268 269 269 268 268 267 267 267 267 268 268 269 270 270 271 271 271 271 271 271 271 272 272 273 273 274 275 276 277 278 279 279 280 281 281 282 283
293 293 293 292 292 291 291 290 289 288 287 286 284 282 280 279 279 279 280 280 281 281 281 280 278 277 275 274 273 272 270 269 269 268 268 267 267 266 266 267 267 267 268 268 268 268 268 268 268 268 269 269 269 269 268 268 268 268 268 268 269 269 270 271 271 271 272 272 272 273 273 273 274 275 276 277 277 278 279 279 280 281 281 282 282
Height
5913 5915 5916 5918 5918 5919 5920 5920 5922 5923 5924 5925 5925 5926 5927 5928 5929 5930 5930 5931 5932 5933 5934 5935 5936 5937 5937 5938 5939 5940 5940 5941 5942 5942 5943 5944 5944 5944 5945 5945 5945 5945 5945 5945 5945 5945 5946 5946 5946 5946 5946 5946 5946 5946 5945 5945 5945 5945 5944 5944 5944 5944 5944 5943 5943 5943 5943 5942 5942 5941 5941 5940 5939 5939 5938 5938 5937 5936 5935 5934 5933 5932 5931 5930 5929
5912 5913 5914 5916 5917 5918 5919 5920 5921 5921 5922 5923 5924 5925 5926 5926 5927 5928 5929 5930 5930 5931 5932 5933 5934 5935 5936 5936 5937 5938 5939 5939 5940 5941 5941 5942 5943 5943 5944 5944 5944 5944 5944 5944 5944 5945 5945 5945 5945 5945 5945 5945 5945 5945 5945 5944 5944 5944 5943 5943 5943 5943 5943 5943 5942 5942 5942 5941 5941 5940 5940 5939 5938 5938 5937 5937 5936 5936 5935 5935 5933 5932 5931 5929 5929
5909 5910 5911 5913 5914 5916 5917 5918 5919 5920 5921 5922 5923 5923 5924 5925 5926 5927 5927 5928 5929 5930 5930 5931 5932 5933 5934 5935 5935 5936 5937 5938 5938 5939 5940 5941 5941 5942 5942 5943 5943 5943 5943 5943 5944 5944 5944 5944 5944 5944 5944 5944 5944 5944 5944 5943 5943 5943 5942 5942 5942 5942 5942 5942 5941 5941 5941 5940 5940 5940 5939 5938 5937 5937 5936 5936 5935 5935 5935 5934 5933 5931 5930 5929 5928
5905 5906 5908 5909 5911 5913 5915 5916 5917 5919 5920 5921 5921 5922 5923 5924 5925 5925 5926 5926 5927 5928 5929 5930 5930 5931 5932 5933 5934 5934 5935 5936 5937 5938 5938 5939 5940 5940 5941 5941 5941 5942 5942 5942 5942 5943 5943 5943 5943 5943 5943 5943 5943 5943 5942 5942 5942 5941 5941 5941 5941 5941 5941 5940 5940 5940 5940 5939 5939 5939 5938 5937 5936 5935 5935 5934 5934 5934 5933 5933 5932 5931 5929 5928 5927
5902 5904 5905 5907 5909 5911 5913 5914 5915 5916 5917 5918 5919 5920 5921 5922 5923 5924 5925 5925 5926 5926 5927 5928 5929 5929 5930 5931 5932 5933 5933 5934 5935 5936 5937 5937 5938 5938 5939 5939 5940 5940 5941 5941 5941 5942 5942 5942 5942 5941 5942 5942 5941 5941 5941 5941 5941 5940 5940 5940 5940 5940 5940 5939 5939 5939 5939 5939 5938 5938 5937 5936 5935 5934 5933 5933 5933 5932 5932 5931 5930 5929 5928 5927 5925
5900 5901 5903 5905 5907 5908 5910 5911 5913 5913 5914 5915 5916 5917 5919 5920 5921 5922 5923 5924 5924 5925 5926 5926 5927 5927 5928 5929 5930 5931 5931 5932 5933 5934 5935 5935 5936 5936 5937 5937 5938 5938 5939 5939 5940 5940 5940 5940 5940 5940 5940 5940 5940 5940 5940 5940 5940 5939 5939 5939 5939 5939 5938 5938 5938 5938 5938 5938 5937 5937 5936 5936 5935 5934 5932 5931 5931 5931 5930 5930 5929 5928 5927 5926 5924
5897 5899 5901 5902 5904 5905 5907 5908 5909 5910 5911 5912 5913 5914 5916 5917 5918 5919 5920 5921 5922 5923 5924 5925 5925 5926 5926 5927 5928 5929 5930 5930 5931 5932 5932 5933 5934 5934 5935 5935 5936 5936 5937 5937 5938 5938 5939 5939 5939 5939 5939 5939 5939 5939 5939 5939 5939 5938 5938 5938 5938 5937 5937 5937 5937 5937 5937 5936 5936 5936 5935 5935 5934 5933 5932 5930 5929 5929 5928 5928 5927 5926 5926 5924 5923
5895 5896 5898 5899 5901 5903 5903 5904 5906 5907 5908 5910 5911 5912 5914 5914 5915 5916 5917 5918 5919 5920 5921 5922 5923 5924 5924 5925 5926 5927 5928 5928 5929 5929 5930 5931 5932 5932 5933 5933 5934 5934 5935 5935 5936 5936 5937 5937 5937 5937 5937 5937 5937 5937 5937 5937 5937 5937 5937 5937 5937 5936 5936 5936 5937 5936 5936 5935 5934 5934 5934 5933 5933 5932 5931 5930 5928 5927 5927 5926 5925 5924 5923 5923 5921
5893 5894 5895 5897 5898 5899 5900 5901 5903 5904 5906 5907 5908 5910 5911 5912 5913 5914 5915 5915 5916 5917 5918 5919 5920 5921 5922 5923 5924 5925 5925 5926 5926 5927 5927 5928 5929 5930 5931 5931 5932 5932 5933 5933 5934 5934 5934 5935 5935 5935 5935 5935 5935 5935 5935 5935 5935 5935 5934 5935 5934 5934 5934 5935 5935 5935 5934 5933 5932 5931 5931 5931 5931 5931 5930 5929 5927 5926 5925 5924 5923 5922 5921 5921 5920
5891 5892 5893 5895 5895 5895 5897 5899 5900 5901 5903 5904 5905 5906 5908 5909 5911 5912 5912 5913 5913 5913 5915 5916 5917 5918 5919 5920 5921 5921 5922 5923 5923 5924 5924 5925 5926 5927 5928 5929 5930 5930 5931 5931 5932 5932 5932 5932 5933 5933 5933 5933 5934 5934 5934 5933 5932 5932 5931 5931 5931 5931 5932 5932 5932 5932 5931 5931 5930 5929 5928 5928 5928 5929 5928 5927 5925 5924 5923 5922 5921 5920 5920 5919 5918
5888 5889 5890 5891 5891 5893 5895 5896 5897 5899 5900 5900 5901 5903 5905 5907 5909 5910 5910 5910 5911 5911 5911 5912 5914 5915 5916 5917 5917 5918 5919 5920 5920 5920 5921 5922 5923 5924 5925 5926 5927 5928 5928 5929 5929 5929 5930 5930 5930 5930 5931 5931 5931 5931 5931 5930 5930 5929 5929 5929 5929 5929 5930 5930 5929 5929 5929 5928 5927 5927 5926 5925 5926 5927 5926 5924 5923 5922 5921 5920 5919 5918 5917 5916 5916
5883 5885 5886 5886 5888 5890 5892 5892 5894 5896 5897 5898 5899 5900 5902 5903 5904 5906 5907 5907 5909 5909 5909 5909 5910 5910 5912 5913 5914 5915 5916 5917 5917 5917 5918 5919 5919 5920 5922 5923 5925 5925 5925 5926 5926 5926 5927 5927 5927 5927 5928 5928 5928 5928 5927 5927 5927 5927 5927 5928 5928 5928 5927 5927 5927 5927 5926 5925 5925 5924 5924 5923 5924 5924 5922 5920 5920 5919 5918 5918 5917 5916 5915 5914 5913
5878 5880 5882 5882 5884 5886 5888 5889 5890 5892 5893 5895 5896 5896 5898 5898 5899 5900 5901 5902 5905 5906 5906 5906 5906 5907 5907 5909 5911 5912 5912 5914 5914 5914 5914 5916 5916 5917 5919 5920 5921 5922 5922 5923 5923 5923 5924 5924 5924 5924 5924 5925 5925 5925 5924 5924 5924 5924 5925 5925 5925 5924 5924 5924 5924 5924 5923 5923 5923 5922 5921 5921 5921 5921 5919 5917 5916 5915 5915 5914 5914 5913 5912 5912 5911
5874 5875 5876 5878 5880 5881 5883 5885 5886 5887 5888 5890 5890 5891 5893 5894 5895 5896 5896 5897 5899 5902 5903 5904 5904 5904 5904 5905 5907 5908 5909 5910 5910 5910 5911 5912 5913 5914 5915 5916 5917 5918 5918 5919 5919 5920 5920 5921 5921 5921 5921 5922 5922 5921 5920 5920 5921 5921 5921 5921 5920 5920 5920 5920 5920 5919 5919 5920 5920 5919 5918 5918 5917 5917 5916 5914 5913 5912 5912 5911 5911 5910 5909 5909 5908
5869 5869 5871 5873 5875 5877 5879 5881 5882 5883 5884 5884 5885 5886 5888 5889 5891 5891 5891 5892 5895 5898 5899 5899 5899 5900 5900 5900 5900 5902 5904 5905 5905 5906 5906 5908 5909 5910 5911 5913 5913 5913 5914 5915 5915 5916 5916 5917 5917 5917 5917 5918 5918 5917 5917 5917 5917 5917 5917 5916 5916 5917 5917 5917 5917 5916 5915 5915 5915 5915 5915 5915 5915 5914 5913 5911 5910 5909 5908 5908 5907 5906 5905 5905 5905
5864 5865 5865 5867 5869 5872 5875 5877 5878 5878 5879 5879 5879 5881 5883 5884 5885 5886 5886 5888 5890 5893 5893 5892 5892 5894 5895 5895 5895 5895 5897 5898 5899 5900 5902 5903 5905 5906 5907 5909 5910 5909 5908 5909 5910 5911 5912 5912 5913 5913 5913 5914 5914 5913 5912 5912 5913 5913 5913 5913 5913 5914 5915 5914 5914 5913 5912 5912 5912 5912 5912 5912 5911 5910 5909 5908 5907 5906 5905 5904 5904 5903 5902 5901 5901
5861 5861 5862 5863 5865 5867 5869 5872 5872 5872 5872 5874 5874 5875 5876 5877 5878 5879 5881 5882 5884 5885 5886 5886 5886 5887 5889 5890 5889 5889 5891 5892 5892 5894 5896 5898 5900 5901 5902 5904 5904 5904 5904 5904 5904 5906 5907 5908 5909 5909 5909 5909 5909 5909 5908 5908 5909 5910 5909 5909 5909 5910 5911 5910 5909 5908 5908 5908 5908 5907 5907 5907 5906 5906 5905 5904 5903 5902 5901 5900 5900 5899 5898 5897 5896
5859 5860 5860 5861 5862 5863 5865 5866 5867 5866 5866 5868 5869 5870 5870 5870 5871 5873 5874 5875 5876 5878 5879 5880 5880 5881 5882 5884 5884 5884 5886 5888 5888 5889 5890 5892 5893 5895 5896 5897 5898 5899 5899 5900 5900 5901 5903 5904 5905 5905 5905 5904 5904 5904 5903 5904 5904 5905 5905 5905 5906 5906 5907 5905 5904 5904 5903 5903 5903 5902 5902 5902 5902 5901 5901 5899 5898 5898 5897 5896 5896 5895 5895 5894 5892
5857 5858 5858 5859 5859 5859 5859 5860 5861 5861 5861 5862 5863 5866 5866 5864 5865 5866 5867 5868 5870 5870 5871 5872 5873 5874 5875 5877 5879 5879 5881 5883 5884 5884 5885 5887 5887 5889 5890 5890 5891 5892 5894 5895 5895 5896 5897 5899 5900 5901 5900 5899 5899 5899 5899 5899 5900 5900 5901 5901 5902 5902 5901 5901 5901 5901 5900 5898 5898 5899 5898 5897 5897 5897 5896 5895 5894 5894 5893 5892 5892 5891 5890 5890 5888
5855 5855 5856 5856 5856 5856 5855 5855 5855 5856 5857 5858 5859 5861 5860 5859 5859 5861 5861 5862 5863 5863 5864 5865 5867 5869 5870 5872 5874 5875 5876 5878 5879 5879 5880 5882 5883 5884 5885 5885 5886 5887 5889 5890 5890 5891 5891 5893 5895 5897 5896 5894 5894 5894 5894 5895 5895 5895 5896 5897 5898 5897 5896 5897 5897 5896 5895 5895 5894 5894 5893 5892 5892 5892 5891 5890 5890 5889 5888 5887 5887 5887 5886 5885 5884
5852 5853 5853 5853 5853 5853 5853 5852 5852 5852 5853 5854 5855 5855 5855 5854 5855 5855 5856 5856 5857 5857 5857 5859 5861 5863 5865 5866 5868 5870 5872 5874 5875 5875 5876 5877 5878 5880 5881 5881 5882 5883 5884 5885 5885 5886 5886 5887 5889 5892 5891 5889 5889 5889 5889 5890 5889 5890 5891 5892 5892 5891 5891 5891 5891 5891 5891 5890 5889 5889 5888 5887 5887 5886 5885 5884 5884 5884 5883 5883 5883 5882 5882 5881 5880
5850 5850 5850 5851 5851 5851 5850 5850 5850 5850 5849 5850 5851 5851 5851 5852 5852 5851 5851 5851 5851 5852 5853 5854 5856 5857 5858 5860 5863 5866 5867 5869 5870 5870 5871 5872 5874 5875 5876 5876 5877 5878 5879 5880 5880 5881 5882 5882 5883 5885 5885 5884 5884 5884 5884 5884 5885 5886 5887 5886 5885 5886 5885 5884 5885 5885 5885 5885 5884 5883 5883 5882 5882 5880 5878 5877 5878 5878 5878 5878 5878 5878 5877 5877 5876
5847 5847 5847 5847 5848 5848 5847 5847 5847 5848 5847 5847 5847 5847 5848 5849 5849 5849 5848 5847 5847 5848 5849 5850 5852 5853 5854 5855 5858 5860 5861 5863 5864 5865 5866 5867 5868 5870 5870 5871 5872 5873 5873 5874 5875 5876 5876 5877 5877 5878 5879 5879 5879 5879 5879 5879 5880 5881 5881 5880 5879 5880 5879 5878 5879 5879 5879 5878 5878 5877 5877 5877 5876 5874 5872 5872 5872 5873 5873 5873 5873 5873 5873 5872 5872
5843 5843 5844 5844 5844 5844 5844 5844 5844 5845 5845 5845 5845 5845 5845 5845 5845 5846 5845 5845 5845 5845 5845 5846 5847 5848 5850 5851 5853 5855 5856 5858 5859 5860 5860 5861 5862 5863 5865 5865 5866 5867 5868 5869 5870 5871 5871 5871 5872 5873 5873 5874 5875 5875 5874 5874 5874 5875 5875 5874 5873 5874 5873 5873 5873 5873 5872 5872 5872 5871 5871 5871 5870 5867 5866 5867 5868 5867 5868 5868 5868 5868 5868 5868 5867
5839 5840 5840 5840 5841 5841 5841 5841 5841 5841 5841 5842 5842 5842 5842 5842 5842 5842 5843 5843 5843 5842 5842 5842 5843 5844 5845 5847 5848 5850 5852 5853 5854 5855 5855 5855 5856 5857 5858 5859 5860 5861 5862 5863 5864 5865 5866 5866 5866 5867 5867 5868 5869 5869 5869 5869 5869 5869 5870 5869 5868 5868 5869 5869 5868 5868 5867 5866 5866 5865 5865 5865 5864 5860 5860 5862 5862 5862 5862 5863 5863 5863 5863 5863 5863
5835 5836 5836 5836 5837 5837 5837 5838 5838 5838 5838 5838 5838 5838 5839 5839 5839 5839 5839 5839 5839 5840 5840 5841 5841 5841 5842 5843 5844 5846 5848 5849 5850 5850 5849 5849 5849 5851 5852 5853 5854 5855 5856 5857 5859 5860 5859 5860 5861 5861 5861 5862 5862 5863 5863 5863 5863 5864 5864 5864 5863 5863 5864 5864 5864 5864 5863 5862 5861 5861 5860 5859 5858 5856 5855 5856 5856 5856 5857 5857 5858 5858 5858 5858 5858
5831 5831 5832 5832 5832 5833 5833 5833 5834 5835 5835 5835 5834 5834 5835 5835 5835 5835 5836 5836 5836 5837 5837 5838 5839 5840 5840 5841 5841 5842 5843 5844 5845 5845 5844 5843 5844 5845 5846 5847 5848 5849 5850 5851 5852 5853 5853 5853 5855 5855 5855 5856 5857 5857 5857 5857 5858 5858 5858 5858 5859 5859 5860 5859 5859 5859 5859 5858 5857 5856 5854 5853 5852 5851 5850 5850 5850 5851 5852 5852 5853 5853 5853 5853 5853
5826 5827 5827 5828 5828 5828 5829 5829 5829 5830 5830 5831 5831 5831 5831 5831 5831 5832 5832 5832 5833 5834 5834 5835 5837 5837 5838 5839 5839 5838 5839 5839 5839 5839 5839 5839 5839 5840 5840 5841 5843 5844 5844 5845 5845 5846 5847 5847 5848 5849 5849 5850 5851 5851 5851 5851 5852 5853 5853 5853 5854 5854 5855 5855 5854 5855 5855 5853 5851 5851 5849 5847 5846 5846 5846 5846 5846 5846 5847 5847 5848 5848 5849 5848 5849
5822 5823 5823 5824 5824 5824 5825 5825 5825 5825 5826 5826 5826 5827 5827 5827 5828 5828 5828 5828 5829 5830 5830 5831 5832 5833 5834 5835 5835 5835 5835 5835 5835 5835 5836 5836 5836 5836 5837 5837 5838 5838 5839 5839 5840 5840 5841 5841 5842 5843 5844 5845 5845 5845 5846 5846 5846 5847 5847 5848 5848 5849 5850 5850 5851 5851 5851 5848 5845 5845 5843 5841 5841 5841 5841 5842 5843 5843 5843 5843 5843 5844 5844 5844 5844
5818 5818 5819 5819 5820 5820 5821 5821 5821 5821 5821 5821 5822 5822 5822 5823 5823 5823 5823 5824 5824 5825 5826 5826 5827 5828 5829 5830 5830 5830 5830 5830 5831 5831 5832 5832 5833 5833 5833 5833 5834 5834 5834 5834 5835 5835 5836 5836 5837 5838 5839 5839 5840 5840 5841 5841 5841 5841 5842 5842 5843 5843 5844 5845 5846 5845 5843 5841 5840 5839 5837 5836 5836 5836 5836 5837 5838 5839 5839 5839 5839 5838 5838 5838 5838
5814 5814 5815 5815 5816 5816 5817 5817 5817 5817 5817 5817 5817 5817 5818 5818 5818 5818 5819 5819 5819 5820 5821 5821 5822 5823 5823 5824 5824 5824 5825 5825 5825 5826 5826 5827 5827 5828 5828 5829 5829 5829 5829 5830 5830 5830 5830 5831 5832 5832 5833 5834 5834 5835 5835 5835 5836 5836 5836 5837 5837 5838 5838 5840 5841 5840 5837 5835 5834 5834 5832 5831 5831 5831 5831 5831 5832 5833 5834 5834 5833 5832 5832 5832 5832
5810 5811 5811 5811 5811 5812 5812 5813 5813 5813 5813 5813 5813 5813 5813 5813 5814 5814 5814 5814 5814 5815 5815 5816 5816 5817 5818 5818 5819 5819 5819 5819 5820 5820 5821 5821 5821 5822 5822 5823 5824 5825 5825 5825 5825 5825 5825 5825 5826 5827 5827 5828 5828 5828 5829 5829 5830 5831 5831 5831 5831 5832 5832 5833 5835 5836 5833 5830 5829 5828 5827 5825 5825 5825 5826 5826 5826 5827 5827 5827 5826 5826 5826 5826 5826
5807 5807 5807 5807 5807 5807 5808 5808 5808 5809 5809 5809 5809 5809 5809 5809 5809 5809 5809 5809 5809 5809 5810 5811 5811 5811 5812 5812 5813 5813 5813 5814 5814 5814 5815 5815 5815 5816 5817 5817 5818 5818 5819 5819 5819 5819 5819 5820 5820 5821 5821 5821 5822 5822 5822 5823 5823 5824 5825 5825 5825 5826 5826 5826 5828 5829 5827 5825 5824 5823 5821 5820 5820 5820 5820 5820 5820 5820 5820 5820 5820 5819 5819 5820 5820
5803 5804 5804 5803 5803 5803 5803 5803 5803 5804 5804 5804 5804 5804 5804 5804 5804 5804 5804 5804 5804 5804 5804 5805 5805 5806 5806 5806 5807 5807 5808 5808 5808 5808 5808 5809 5809 5810 5810 5811 5811 5812 5812 5812 5813 5813 5813 5814 5814 5814 5814 5815 5815 5815 5816 5816 5817 5817 5818 5818 5819 5819 5819 5819 5820 5821 5821 5820 5819 5818 5816 5815 5815 5815 5814 5814 5814 5813 5813 5813 5813 5813 5812 5812 5813
5800 5800 5800 5799 5799 5799 5799 5799 5798 5798 5798 5799 5799 5799 5799 5799 5799 5799 5799 5799 5799 5799 5799 5799 5799 5800 5800 5800 5801 5801 5801 5801 5802 5802 5802 5802 5802 5803 5803 5804 5805 5805 5805 5806 5806 5806 5807 5807 5807 5808 5808 5808 5808 5808 5809 5809 5809 5809 5810 5811 5812 5812 5812 5812 5813 5813 5813 5813 5813 5812 5810 5809 5808 5807 5807 5807 5807 5807 5806 5806 5806 5806 5805 5805 5805
5796 5796 5796 5795 5795 5795 5795 5794 5794 5794 5793 5793 5793 5793 5793 5793 5793 5793 5793 5793 5793 5793 5793 5793 5793 5793 5794 5794 5794 5794 5794 5795 5795 5795 5795 5795 5796 5796 5796 5797 5797 5798 5798 5799 5799 5800 5800 5800 5801 5801 5801 5801 5801 5801 5801 5801 5802 5802 5802 5802 5803 5804 5804 5805 5805 5804 5804 5805 5804 5804 5802 5801 5801 5801 5801 5801 5801 5801 5800 5800 5799 5798 5798 5797 5797
5792 5792 5791 5791 5791 5790 5790 5790 5789 5789 5788 5788 5788 5787 5787 5787 5787 5787 5787 5787 5787 5787 5787 5787 5787 5787 5787 5787 5787 5787 5788 5788 5788 5788 5788 5789 5789 5789 5789 5789 5790 5790 5791 5791 5792 5792 5793 5793 5793 5793 5794 5794 5794 5794 5794 5794 5794 5794 5794 5794 5794 5795 5795 5796 5796 5796 5795 5795 5795 5794 5794 5794 5794 5794 5794 5794 5793 5793 5792 5792 5791 5790 5790 5789 5789
5789 5788 5787 5787 5786 5786 5785 5785 5784 5784 5783 5783 5782 5782 5781 5781 5780 5780 5780 5780 5780 5780 5780 5780 5780 5780 5780 5781 5780 5780 5780 5781 5781 5781 5781 5781 5781 5782 5782 5782 5782 5782 5782 5783 5784 5784 5784 5785 5785 5785 5785 5786 5786 5786 5786 5786 5786 5786 5786 5786 5786 5787 5787 5787 5787 5787 5787 5786 5786 5785 5785 5786 5786 5786 5786 5786 5785 5784 5784 5784 5783 5782 5781 5781 5780
5785 5784 5784 5783 5782 5781 5781 5780 5779 5779 5778 5777 5777 5776 5775 5775 5774 5773 5772 5772 5772 5772 5773 5773 5773 5773 5773 5773 5773 5773 5773 5773 5773 5773 5773 5773 5774 5774 5774 5774 5775 5775 5775 5775 5775 5775 5775 5776 5777 5777 5777 5777 5777 5777 5778 5778 5778 5778 5778 5778 5778 5778 5779 5778 5778 5778 5779 5778 5778 5777 5778 5777 5777 5777 5778 5778 5777 5776 5776 5776 5775 5774 5773 5773 5772
5780 5779 5779 5778 5777 5776 5775 5774 5774 5773 5772 5771 5771 5770 5769 5768 5767 5766 5765 5765 5764 5764 5765 5765 5765 5765 5765 5765 5765 5765 5765 5765 5765 5765 5765 5766 5766 5766 5766 5766 5766 5766 5767 5767 5767 5767 5767 5767 5767 5768 5768 5768 5769 5769 5769 5769 5769 5769 5770 5770 5770 5770 5770 5770 5770 5770 5770 5770 5770 5769 5769 5769 5769 5768 5768 5768 5768 5767 5767 5766 5766 5765 5764 5763 5763
5774 5773 5773 5772 5771 5770 5769 5768 5767 5766 5765 5764 5764 5763 5762 5761 5760 5759 5758 5757 5757 5757 5757 5757 5757 5758 5757 5757 5757 5757 5757 5757 5757 5757 5757 5757 5758 5758 5758 5758 5758 5758 5758 5758 5758 5758 5759 5759 5759 5759 5759 5759 5760 5760 5760 5760 5761 5761 5761 5761 5761 5761 5761 5761 5761 5761 5761 5761 5761 5760 5760 5760 5760 5759 5759 5759 5758 5758 5757 5757 5756 5756 5755 5754 5754
5768 5767 5766 5765 5765 5763 5762 5761 5760 5759 5758 5757 5756 5756 5755 5754 5752 5751 5751 5750 5749 5749 5748 5748 5749 5749 5749 5749 5749 5749 5748 5749 5749 5749 5749 5749 5749 5749 5749 5749 5750 5750 5750 5750 5750 5750 5750 5750 5750 5750 5750 5750 5751 5751 5751 5751 5752 5752 5752 5752 5753 5753 5753 5753 5753 5752 5752 5751 5751 5751 5750 5750 5750 5750 5750 5750 5749 5749 5748 5747 5746 5746 5746 5745 5744
5761 5760 5759 5758 5758 5757 5755 5754 5753 5752 5751 5750 5749 5748 5747 5746 5744 5744 5743 5742 5742 5741 5740 5739 5739 5740 5741 5741 5741 5740 5741 5741 5741 5741 5740 5740 5740 5740 5740 5740 5740 5740 5740 5740 5741 5741 5741 5741 5741 5742 5742 5742 5742 5742 5742 5742 5742 5742 5743 5743 5744 5744 5744 5744 5744 5744 5743 5742 5742 5741 5741 5741 5741 5741 5741 5741 5740 5739 5739 5738 5737 5737 5736 5736 5735
5755 5754 5753 5751 5750 5749 5748 5747 5746 5744 5743 5743 5742 5741 5740 5738 5737 5736 5735 5734 5734 5734 5732 5730 5730 5731 5732 5732 5732 5732 5732 5733 5733 5733 5732 5732 5732 5731 5731 5731 5731 5731 5731 5731 5731 5731 5732 5732 5732 5732 5733 5733 5734 5734 5734 5734 5734 5734 5734 5734 5734 5734 5734 5734 5734 5734 5734 5734 5733 5733 5733 5732 5732 5732 5732 5731 5731 5730 5730 5729 5728 5728 5727 5726 5726
5749 5748 5746 5744 5743 5741 5740 5739 5738 5736 5736 5735 5733 5732 5732 5731 5729 5728 5727 5726 5726 5726 5724 5722 5722 5723 5723 5722 5722 5722 5723 5723 5724 5724 5724 5724 5723 5723 5722 5723 5723 5722 5722 5722 5722 5722 5722 5722 5722 5723 5723 5724 5724 5725 5725 5725 5726 5726 5726 5726 5726 5726 5725 5725 5725 5725 5725 5725 5724 5724 5724 5723 5723 5723 5722 5722 5721 5721 5720 5720 5719 5718 5718 5717 5716
5742 5741 5739 5737 5736 5734 5733 5731 5730 5729 5728 5727 5725 5724 5723 5723 5722 5720 5719 5718 5718 5718 5716 5715 5714 5715 5714 5714 5713 5713 5713 5713 5714 5714 5714 5714 5714 5714 5713 5713 5713 5713 5713 5713 5713 5713 5712 5713 5713 5713 5714 5714 5715 5715 5716 5716 5717 5717 5717 5717 5717 5717 5717 5717 5717 5717 5717 5716 5716 5716 5715 5715 5714 5714 5713 5713 5712 5712 5711 5711 5710 5709 5709 5708 5707
5736 5734 5732 5730 5729 5727 5726 5724 5722 5721 5719 5719 5717 5715 5714 5714 5713 5711 5710 5710 5710 5709 5707 5706 5706 5707 5706 5705 5704 5704 5705 5704 5704 5704 5704 5703 5703 5704 5704 5704 5704 5704 5704 5704 5703 5703 5703 5703 5703 5704 5704 5705 5705 5706 5707 5707 5708 5708 5708 5708 5708 5708 5709 5709 5709 5709 5709 5708 5708 5708 5707 5707 5706 5706 5705 5705 5704 5703 5703 5702 5701 5701 5700 5699 5698
5729 5727 5725 5723 5722 5720 5718 5717 5715 5713 5711 5710 5709 5707 5706 5704 5703 5702 5701 5701 5701 5700 5699 5697 5697 5697 5697 5697 5696 5696 5696 5695 5694 5694 5694 5694 5693 5694 5694 5694 5694 5695 5695 5694 5694 5694 5693 5694 5694 5695 5695 5695 5696 5696 5697 5698 5698 5698 5698 5699 5700 5700 5701 5701 5701 5701 5700 5700 5700 5700 5699 5698 5698 5697 5697 5697 5696 5695 5695 5694 5693 5693 5692 5691 5691
5721 5719 5717 5716 5714 5712 5711 5709 5708 5706 5704 5703 5701 5699 5697 5696 5694 5693 5693 5693 5692 5691 5690 5689 5688 5687 5687 5687 5687 5687 5687 5687 5686 5685 5685 5685 5684 5684 5684 5684 5684 5684 5685 5685 5685 5684 5684 5685 5685 5686 5686 5686 5687 5688 5688 5688 5688 5688 5688 5689 5691 5691 5692 5692 5692 5692 5692 5692 5692 5692 5691 5691 5690 5690 5689 5689 5689 5688 5687 5687 5686 5685 5684 5684 5683
5713 5711 5710 5708 5707 5705 5703 5701 5700 5698 5696 5695 5693 5691 5689 5687 5685 5684 5684 5684 5683 5682 5681 5680 5680 5679 5677 5677 5677 5677 5677 5677 5677 5676 5676 5676 5675 5675 5675 5675 5674 5674 5674 5675 5675 5675 5676 5676 5676 5677 5677 5677 5678 5679 5679 5680 5680 5680 5680 5681 5681 5682 5682 5683 5683 5683 5683 5683 5683 5683 5683 5683 5682 5682 5682 5682 5681 5680 5680 5679 5679 5678 5677 5676 5675
5706 5704 5702 5700 5698 5697 5695 5693 5691 5689 5688 5686 5684 5683 5681 5680 5678 5677 5677 5676 5675 5674 5673 5672 5671 5670 5668 5667 5668 5668 5667 5667 5667 5667 5667 5667 5667 5666 5666 5665 5665 5665 5665 5665 5665 5666 5666 5667 5668 5668 5668 5669 5670 5670 5671 5671 5671 5671 5672 5672 5673 5673 5674 5674 5674 5675 5675 5674 5675 5675 5675 5675 5675 5674 5674 5674 5673 5673 5672 5672 5671 5670 5669 5668 5668